Terminal Aerodrome Forecast
Issued by NWS

Home | Current Version | Previous Version | Text Only | Print | Product List | Glossary On
Versions: 1 2 3 4 5 6 7 8 9 10 11 12 13 14
000
FTAK31 PAJN 291100
TAFAJN
TAF
PAJN 291135Z 2912/3012 00000KT P6SM SKC
     FM291600 24010KT P6SM SKC
     FM300400 24004KT P6SM SKC
     FM300600 00000KT P6SM SKC=

USA.gov is the U.S. government's official web portal to all federal, state and local government web resources and services.